This is the latest recevied weather packets stored in our database for station/object DL2GFH-3. If no packets are shown the sender has not sent any weather packets the latest 10 day(s).
| Time | Temp. | Humidity | Pressure | Rain* | Wind** | Luminosity | Snow |
|---|---|---|---|---|---|---|---|
| 1776989873 | 20° C | 23% | 1022.4 hPa | - | - | - | - |
| 1776988968 | 19.44° C | 24% | 1022.5 hPa | - | - | - | - |
| 1776988062 | 17.78° C | 25% | 1022.8 hPa | - | - | - | - |
| 1776987157 | 18.33° C | 25% | 1022.9 hPa | - | - | - | - |
| 1776986251 | 17.78° C | 26% | 1023 hPa | - | - | - | - |
| 1776985346 | 18.33° C | 25% | 1023.1 hPa | - | - | - | - |
| 1776984441 | 17.78° C | 26% | 1023.1 hPa | - | - | - | - |
| 1776983535 | 18.33° C | 26% | 1023.2 hPa | - | - | - | - |
| 1776982630 | 18.33° C | 26% | 1023.1 hPa | - | - | - | - |
| 1776981724 | 17.78° C | 26% | 1023.1 hPa | - | - | - | - |
| 1776980819 | 17.78° C | 26% | 1023.1 hPa | - | - | - | - |
| 1776979914 | 18.33° C | 26% | 1023 hPa | - | - | - | - |
| 1776979008 | 18.89° C | 26% | 1023.1 hPa | - | - | - | - |
| 1776978103 | 19.44° C | 25% | 1023.1 hPa | - | - | - | - |
| 1776977197 | 20° C | 24% | 1022.8 hPa | - | - | - | - |
| 1776976292 | 21.11° C | 24% | 1022.7 hPa | - | - | - | - |
| 1776975386 | 22.22° C | 22% | 1022.7 hPa | - | - | - | - |
| 1776974481 | 23.33° C | 21% | 1022.6 hPa | - | - | - | - |
| 1776973576 | 24.44° C | 20% | 1022.4 hPa | - | - | - | - |
| 1776972670 | 25.56° C | 19% | 1022.4 hPa | - | - | - | - |
| 1776971765 | 25.56° C | 19% | 1022.3 hPa | - | - | - | - |
| 1776970859 | 25° C | 20% | 1022.3 hPa | - | - | - | - |
| 1776969049 | 23.89° C | 21% | 1022.2 hPa | - | - | - | - |
| 1776968143 | 23.33° C | 22% | 1022.2 hPa | - | - | - | - |
| 1776967238 | 23.33° C | 22% | 1022.3 hPa | - | - | - | - |
* Rain since midnight (hover to see other rain measurements)
** Current wind speed in m/s (hover to see current wind gust speed)